Weather in Talon

Russia / Altai Republic     52°20′21″N   88°21′48″E
temp.,
°C
wind,
m/s
gust,
m/s
humid.,
%
clouds,
%
prec.,
mm/h
press.,
hPa
HPBL,
m
6 march, sat
sat601:00−8se2290100 1.0 103027
04:00−10sse238199 0.0 102840
07:00−10sse2380100 0.0 102836
10:00−5sse238390 0.0 1026115
13:000wsw129794 0.0 1022270
16:000wnw01100100 0.0 1018170
19:00−4s0096100 0.0 101921
22:00−7sse228357 0.0 102025
7 march, sun
sun701:00−9s227958 0.0 102124
04:00−9sse228073 0.0 102025
07:00−8sse228186 0.0 102123
10:00−5w1185100 0.0 1020125
13:00−3nnw1184100 0.0 1019468
16:00−3nw1190100 0.0 1019447
19:00−6nnw1194100 0.0 102221
22:00−7sse1290100 0.0 102421
8 march, mon
mon801:00−8se2285100 0.0 102521
04:00−9se228677 0.0 102422
07:00−8se228587 0.0 102425
10:00−3ese228782 0.0 1020110
13:00+1e0110087 0.0 1016114
16:00+1nw0010098 0.0 101455
19:00+1ssw129999 0.0 101576
22:000ssw2284100 0.0 101722
9 march, tue
tue901:00−2w2393100 0.1 1018123
04:00−4sw3897100 2.4 1020616
07:00−4sw3798100 5.4 1023695
10:00−3wsw3597100 2.1 1024481
13:00−3wnw2396100 3.2 1024517
16:00−3wnw1295100 0.2 1024376
19:00−5nne1198100 0.3 102521
22:00−7ese129597 0.0 102621
10 march, wed
wed1001:00−8se229197 0.0 102423
04:00−9se228462 0.0 102322
07:00−8se228252 0.0 102222
10:00−1se228668 0.0 1019126
13:00+1sw0110078 0.0 1016119
16:00+1nnw0010099 0.0 101428
19:00+1ese229999 0.0 101442
22:00−3se338460 0.0 101436